| time (UTC) | temp F | wind direction | speed MPH | gust MPH | rain 1hr in | rain 24hr in | rain mn in | humidity % | barometer mb |
| 20260903003059 | 68 | 116 | 0.0 | 0.0 | 0.44 | 0.50 | 0.44 | 97 | 1012.9 |
| 20260903001558 | 67 | 218 | 0.0 | 0.0 | 0.41 | 0.47 | 0.41 | 97 | 1012.7 |
| 20260903000056 | 68 | 56 | 0.0 | 3.0 | 0.31 | 0.37 | 0.31 | 96 | 1013.4 |
| 20260902234613 | 0 | 0.0 | 0.0 | 0.00 | 0.06 | 0.00 | 1012.8 | ||
| 20260902233047 | 75 | 118 | 1.0 | 10.0 | 0.09 | 0.15 | 0.15 | 82 | 1012.9 |
| 20260902231546 | 78 | 195 | 0.0 | 0.0 | 0.00 | 0.06 | 0.06 | 88 | 1010.5 |
| 20260902230045 | 80 | 193 | 0.0 | 0.0 | 0.00 | 0.06 | 0.06 | 86 | 1010.5 |
| 20260902224605 | 81 | 193 | 0.0 | 0.0 | 0.00 | 0.06 | 0.06 | 83 | 1010.8 |
| 20260902223043 | 82 | 193 | 0.0 | 0.0 | 0.00 | 0.06 | 0.06 | 81 | 1010.8 |
| 20260902221542 | 83 | 193 | 0.0 | 0.0 | 0.00 | 0.06 | 0.06 | 80 | 1010.8 |
| 20260902220046 | 83 | 193 | 0.0 | 0.0 | 0.00 | 0.06 | 0.06 | 79 | 1010.9 |
| 20260902214539 | 83 | 193 | 0.0 | 0.0 | 0.00 | 0.06 | 0.06 | 78 | 1011.1 |
| 20260902213038 | 83 | 193 | 0.0 | 0.0 | 0.00 | 0.06 | 0.06 | 77 | 1011.6 |
| 20260902211539 | 84 | 193 | 0.0 | 0.0 | 0.00 | 0.06 | 0.06 | 75 | 1011.3 |
| 20260902210036 | 84 | 193 | 0.0 | 0.0 | 0.00 | 0.06 | 0.06 | 72 | 1011.5 |
| 20260902204538 | 85 | 179 | 0.0 | 0.0 | 0.00 | 0.06 | 0.06 | 68 | 1012.3 |
| 20260902203033 | 85 | 192 | 0.0 | 1.0 | 0.00 | 0.06 | 0.06 | 67 | 1012.6 |
| 20260902201529 | 85 | 224 | 0.0 | 2.0 | 0.00 | 0.06 | 0.06 | 69 | 1013.0 |
| 20260902200047 | 85 | 161 | 0.0 | 2.0 | 0.00 | 0.06 | 0.06 | 72 | 1012.8 |
| 20260902194529 | 85 | 192 | 0.0 | 2.0 | 0.00 | 0.06 | 0.06 | 72 | 1013.0 |
| 20260902193028 | 85 | 238 | 0.0 | 0.0 | 0.00 | 0.06 | 0.06 | 73 | 1012.8 |
| 20260902191531 | 85 | 165 | 0.0 | 0.0 | 0.00 | 0.06 | 0.06 | 74 | 1012.7 |
| 20260902190044 | 84 | 199 | 0.0 | 0.0 | 0.00 | 0.06 | 0.06 | 74 | 1012.7 |
| 20260902184531 | 84 | 162 | 0.0 | 0.0 | 0.00 | 0.06 | 0.06 | 75 | 1012.5 |
| 20260902183024 | 84 | 224 | 0.0 | 0.0 | 0.00 | 0.06 | 0.06 | 74 | 1012.6 |
| 20260902181526 | 84 | 185 | 0.0 | 0.0 | 0.00 | 0.06 | 0.06 | 73 | 1012.8 |
| 20260902180021 | 84 | 188 | 0.0 | 0.0 | 0.00 | 0.06 | 0.06 | 71 | 1013.2 |
| 20260902174520 | 86 | 55 | 0.0 | 0.0 | 0.00 | 0.06 | 0.06 | 67 | 1013.5 |
| 20260902173018 | 86 | 238 | 0.0 | 1.0 | 0.00 | 0.06 | 0.06 | 68 | 1013.7 |
| 20260902171514 | 84 | 158 | 0.0 | 1.0 | 0.00 | 0.06 | 0.06 | 72 | 1013.6 |
| 20260902170011 | 83 | 178 | 0.0 | 2.0 | 0.00 | 0.06 | 0.06 | 74 | 1013.7 |
| 20260902164509 | 81 | 160 | 0.0 | 1.0 | 0.00 | 0.06 | 0.06 | 78 | 1013.9 |
| 20260902163002 | 79 | 189 | 0.0 | 1.0 | 0.00 | 0.06 | 0.06 | 80 | 1013.8 |
| 20260902161557 | 78 | 179 | 0.0 | 0.0 | 0.00 | 0.06 | 0.06 | 83 | 1014.1 |
| 20260902160057 | 76 | 212 | 0.0 | 0.0 | 0.00 | 0.06 | 0.06 | 85 | 1014.1 |
| 20260902154550 | 75 | 146 | 0.0 | 1.0 | 0.00 | 0.06 | 0.06 | 88 | 1014.2 |
| 20260902153044 | 73 | 198 | 0.0 | 1.0 | 0.00 | 0.06 | 0.06 | 94 | 1014.5 |
| 20260902151544 | 72 | 186 | 0.0 | 0.0 | 0.00 | 0.06 | 0.06 | 98 | 1014.3 |
| 20260902150044 | 73 | 159 | 0.0 | 0.0 | 0.00 | 0.06 | 0.06 | 98 | 1014.4 |
| 20260902144544 | 72 | 210 | 0.0 | 0.0 | 0.00 | 0.06 | 0.06 | 98 | 1014.3 |
| 20260902143043 | 72 | 210 | 0.0 | 0.0 | 0.00 | 0.06 | 0.06 | 99 | 1014.7 |
| 20260902141539 | 71 | 102 | 0.0 | 0.0 | 0.00 | 0.06 | 0.06 | 99 | 1015.0 |
| 20260902140040 | 71 | 149 | 0.0 | 0.0 | 0.01 | 0.06 | 0.06 | 99 | 1014.9 |
| 20260902134637 | 71 | 149 | 0.0 | 0.0 | 0.04 | 0.06 | 0.06 | 99 | 1015.6 |
| 20260902133033 | 70 | 89 | 0.0 | 0.0 | 0.05 | 0.06 | 0.06 | 99 | 1015.6 |
| 20260902131534 | 70 | 234 | 0.0 | 0.0 | 0.06 | 0.06 | 0.06 | 99 | 1015.5 |
| 20260902130031 | 70 | 151 | 0.0 | 0.0 | 0.05 | 0.05 | 0.05 | 99 | 1016.0 |
| 20260902124527 | 69 | 119 | 0.0 | 0.0 | 0.02 | 0.02 | 0.02 | 99 | 1015.3 |
| 20260902123026 | 69 | 119 | 0.0 | 0.0 | 0.01 | 0.01 | 0.01 | 99 | 1014.7 |
| 20260902121524 | 69 | 119 | 0.0 | 0.0 | 0.00 | 0.00 | 0.00 | 98 | 1015.0 |
| 20260902120024 | 69 | 74 | 0.0 | 0.0 | 0.00 | 0.00 | 0.00 | 98 | 1014.0 |
| 20260902114527 | 69 | 74 | 0.0 | 0.0 | 0.00 | 0.00 | 0.00 | 98 | 1014.1 |
| 20260902113025 | 69 | 74 | 0.0 | 0.0 | 0.00 | 0.00 | 0.00 | 98 | 1013.0 |
| 20260902111531 | 68 | 74 | 0.0 | 0.0 | 0.00 | 0.00 | 0.00 | 99 | 1013.2 |
| 20260902110022 | 68 | 74 | 0.0 | 0.0 | 0.00 | 0.00 | 0.00 | 99 | 1013.2 |
| 20260902104535 | 68 | 74 | 0.0 | 0.0 | 0.00 | 0.01 | 0.00 | 98 | 1013.2 |
| 20260902103020 | 68 | 74 | 0.0 | 0.0 | 0.00 | 0.01 | 0.00 | 98 | 1013.2 |
| 20260902101519 | 67 | 74 | 0.0 | 0.0 | 0.00 | 0.01 | 0.00 | 98 | 1013.1 |
| 20260902100022 | 67 | 74 | 0.0 | 0.0 | 0.00 | 0.01 | 0.00 | 98 | 1013.2 |
| 20260902094521 | 67 | 74 | 0.0 | 0.0 | 0.00 | 0.04 | 0.00 | 98 | 1013.5 |
| 20260902093013 | 67 | 74 | 0.0 | 0.0 | 0.00 | 0.04 | 0.00 | 98 | 1013.9 |
| 20260902091512 | 67 | 74 | 0.0 | 0.0 | 0.00 | 0.04 | 0.00 | 98 | 1013.9 |
| 20260902090012 | 67 | 74 | 0.0 | 0.0 | 0.00 | 0.04 | 0.00 | 98 | 1013.9 |
| 20260902084509 | 67 | 74 | 0.0 | 0.0 | 0.00 | 0.09 | 0.00 | 98 | 1014.1 |
| 20260902083010 | 67 | 74 | 0.0 | 0.0 | 0.00 | 0.09 | 0.00 | 98 | 1014.4 |
| 20260902081515 | 67 | 74 | 0.0 | 0.0 | 0.00 | 0.09 | 0.00 | 98 | 1014.6 |
| 20260902080008 | 67 | 74 | 0.0 | 0.0 | 0.00 | 0.09 | 0.00 | 98 | 1014.4 |
| 20260902074506 | 68 | 74 | 0.0 | 0.0 | 0.00 | 0.11 | 0.00 | 98 | 1014.5 |
| 20260902073005 | 67 | 74 | 0.0 | 0.0 | 0.00 | 0.11 | 0.00 | 98 | 1014.5 |
| 20260902071508 | 68 | 74 | 0.0 | 0.0 | 0.00 | 0.11 | 0.00 | 98 | 1014.6 |
| 20260902070006 | 68 | 74 | 0.0 | 0.0 | 0.00 | 0.11 | 0.00 | 98 | 1014.7 |
| 20260902064501 | 68 | 74 | 0.0 | 0.0 | 0.00 | 0.11 | 0.00 | 98 | 1014.5 |
| 20260902063002 | 68 | 74 | 0.0 | 0.0 | 0.00 | 0.11 | 0.00 | 98 | 1014.4 |
| 20260902061622 | 68 | 74 | 0.0 | 0.0 | 0.00 | 0.11 | 0.00 | 97 | 1014.8 |
| 20260902054602 | 68 | 74 | 0.0 | 0.0 | 0.00 | 0.14 | 0.00 | 97 | 1014.7 |
| 20260902053056 | 68 | 74 | 0.0 | 0.0 | 0.00 | 0.14 | 0.00 | 97 | 1014.8 |
| 20260902051556 | 68 | 74 | 0.0 | 0.0 | 0.00 | 0.14 | 0.00 | 97 | 1014.7 |
| 20260902044549 | 69 | 74 | 0.0 | 0.0 | 0.00 | 0.14 | 0.00 | 97 | 1014.8 |
| 20260902043046 | 69 | 74 | 0.0 | 0.0 | 0.00 | 0.14 | 0.00 | 97 | 1014.7 |
| 20260902041556 | 69 | 74 | 0.0 | 0.0 | 0.00 | 0.14 | 0.00 | 97 | 1014.8 |
| 20260902040043 | 70 | 74 | 0.0 | 0.0 | 0.00 | 0.14 | 0.00 | 97 | 1014.8 |
| 20260902034545 | 70 | 74 | 0.0 | 0.0 | 0.00 | 0.14 | 0.14 | 96 | 1014.8 |
| 20260902033045 | 70 | 74 | 0.0 | 0.0 | 0.00 | 0.14 | 0.14 | 96 | 1014.7 |
| 20260902031541 | 70 | 74 | 0.0 | 0.0 | 0.00 | 0.14 | 0.14 | 96 | 1014.7 |
| 20260902030040 | 70 | 74 | 0.0 | 0.0 | 0.00 | 0.14 | 0.14 | 96 | 1014.8 |
| 20260902024542 | 70 | 74 | 0.0 | 0.0 | 0.00 | 0.14 | 0.14 | 96 | 1014.8 |
| 20260902023039 | 70 | 74 | 0.0 | 0.0 | 0.00 | 0.14 | 0.14 | 96 | 1014.8 |
| 20260902021552 | 70 | 74 | 0.0 | 0.0 | 0.00 | 0.14 | 0.14 | 96 | 1014.8 |
| 20260902020038 | 70 | 74 | 0.0 | 0.0 | 0.00 | 0.14 | 0.14 | 96 | 1014.9 |
| 20260902014540 | 70 | 312 | 0.0 | 0.0 | 0.00 | 0.00 | 0.14 | 96 | 1015.0 |
| 20260902013036 | 70 | 312 | 0.0 | 0.0 | 0.00 | 0.14 | 0.14 | 96 | 1014.9 |
| 20260902011538 | 70 | 312 | 0.0 | 0.0 | 0.00 | 0.14 | 0.14 | 96 | 1014.8 |
| 20260902010052 | 70 | 312 | 0.0 | 0.0 | 0.00 | 0.14 | 0.14 | 95 | 1014.7 |
| 20260902004540 | 70 | 312 | 0.0 | 0.0 | 0.00 | 0.15 | 0.14 | 95 | 1014.3 |